Location: Harburg
(48.7667°N, 10.6667°E)
Time: 06:13:50
(UTC+00:00)

MetOp-B - Pass Details

Date: 18 September 2020
Orbit: 819 x 821 km, 98.7° (Epoch: 22 October)

Event Time Altitude Azimuth Distance (km) Brightness Sun altitude
Exits shadow 19:41:03 51° 108° (ESE) 1,027 4.2 -22.4°
Maximum altitude 19:41:57 58° 69° (ENE) 954 4.2 -22.6°
Drops below altitude 10° 19:47:13 10° 352° (N) 2,428 7.1 -23.3°
Sets 19:49:36 0° 349° (N) 3,364 8.0 -23.6°
